TimeEST,TemperatureF,Dew PointF,Humidity,Sea Level PressureIn,VisibilityMPH,Wind Direction,Wind SpeedMPH,Gust SpeedMPH,PrecipitationIn,Events,Conditions,WindDirDegrees,DateUTC
12:51 AM,46.4,30.2,53,29.97,10.0,SSE,6.9,-,N/A,,Mostly Cloudy,160,2012-12-16 05:51:00
1:51 AM,43.0,37.9,82,29.98,5.0,South,8.1,-,0.03,Rain,Light Rain,180,2012-12-16 06:51:00
1:59 AM,44.6,39.2,81,29.98,9.0,South,8.1,-,0.00,Rain,Light Rain,180,2012-12-16 06:59:00
2:27 AM,42.8,39.2,87,29.99,10.0,South,3.5,-,0.00,,Overcast,170,2012-12-16 07:27:00
2:38 AM,42.8,39.2,87,29.98,8.0,SE,4.6,-,0.00,Rain,Light Rain,140,2012-12-16 07:38:00
2:51 AM,44.1,39.9,85,29.99,10.0,SSE,4.6,-,0.00,,Overcast,150,2012-12-16 07:51:00
3:51 AM,45.0,41.0,86,29.98,10.0,South,4.6,-,N/A,,Overcast,180,2012-12-16 08:51:00
4:51 AM,46.9,41.0,80,29.95,10.0,South,6.9,-,N/A,,Overcast,170,2012-12-16 09:51:00
5:04 AM,46.4,41.0,81,29.95,10.0,South,6.9,-,N/A,,Overcast,190,2012-12-16 10:04:00
5:25 AM,46.4,41.0,81,29.95,10.0,SSE,4.6,-,N/A,,Overcast,160,2012-12-16 10:25:00
5:51 AM,46.0,41.0,83,29.95,10.0,Calm,Calm,-,N/A,,Overcast,0,2012-12-16 10:51:00
6:51 AM,45.0,41.0,86,29.94,10.0,SE,4.6,-,N/A,,Overcast,140,2012-12-16 11:51:00
7:51 AM,46.0,41.0,83,29.94,10.0,SE,5.8,-,N/A,,Overcast,140,2012-12-16 12:51:00
8:51 AM,46.9,41.0,80,29.95,10.0,SE,4.6,-,N/A,,Overcast,130,2012-12-16 13:51:00
9:51 AM,48.0,43.0,83,29.94,10.0,SSE,5.8,-,0.00,,Overcast,160,2012-12-16 14:51:00
10:51 AM,50.0,45.0,83,29.92,10.0,SE,4.6,-,N/A,,Overcast,140,2012-12-16 15:51:00
11:51 AM,53.1,48.0,83,29.90,10.0,WSW,5.8,-,N/A,,Overcast,240,2012-12-16 16:51:00
12:51 PM,53.6,48.2,82,29.86,10.0,Variable,6.9,-,N/A,,Overcast,0,2012-12-16 17:51:00
1:51 PM,55.0,48.9,80,29.84,10.0,SW,10.4,-,N/A,,Mostly Cloudy,220,2012-12-16 18:51:00
2:51 PM,55.0,48.9,80,29.84,10.0,SW,10.4,-,N/A,,Overcast,220,2012-12-16 19:51:00
3:51 PM,55.9,48.9,77,29.81,10.0,SSW,6.9,-,N/A,,Overcast,200,2012-12-16 20:51:00
4:51 PM,55.0,48.0,77,29.75,10.0,SSE,15.0,21.9,N/A,,Mostly Cloudy,150,2012-12-16 21:51:00
5:51 PM,55.0,46.9,74,29.80,10.0,SW,4.6,-,N/A,,Scattered Clouds,220,2012-12-16 22:51:00
6:51 PM,54.0,46.0,75,29.79,10.0,Calm,Calm,-,N/A,,Mostly Cloudy,0,2012-12-16 23:51:00
7:51 PM,52.0,46.0,80,29.82,10.0,SW,4.6,-,N/A,,Scattered Clouds,220,2012-12-17 00:51:00
8:51 PM,53.1,46.0,77,29.80,10.0,South,5.8,-,N/A,,Mostly Cloudy,190,2012-12-17 01:51:00
9:51 PM,51.8,46.4,82,29.83,10.0,SSW,5.8,-,N/A,,Overcast,210,2012-12-17 02:51:00
10:51 PM,54.0,44.1,69,29.82,10.0,SSW,11.5,19.6,N/A,,Overcast,210,2012-12-17 03:51:00
11:51 PM,54.0,41.0,62,29.78,10.0,South,11.5,-,N/A,,Clear,190,2012-12-17 04:51:00